Location: Unspecified
(47.9110°N, 14.3980°E)
Time: 04:50:29
(UTC+00:00)

Cosmos 1842 - Pass Details

Date: 06 August 2020
Orbit: 520 x 538 km, 82.5° (Epoch: 19 September)

Event Time Altitude Azimuth Distance (km) Brightness Sun altitude
Rises 23:34:57 0° 348° (NNW) 2,701 8.0 -25.5°
Reaches altitude 10° 23:37:07 10° 346° (NNW) 1,803 6.8 -25.4°
Enters shadow 23:40:07 48° 326° (NW) 710 4.1 -25.3°
